Portsmouth, NH

3:08 PM EST on January 19, 2018 (GMT -0500)
Pease International Tradeport

Weather History for KPSM - February, 2015

Change the Weather History Date:

Saturday, February 28, 2015

  Actual Average Record
Temperature  
Mean Temperature 16 °F -  
Max Temperature 29 °F 37 °F 57 °F (2016)
Min Temperature 3 °F 21 °F 2 °F (1982)
Degree Days  
Heating Degree Days 49    
Moisture  
Dew Point -3 °F    
Average Humidity 44    
Maximum Humidity 64    
Minimum Humidity 27    
Precipitation  
Precipitation 0.00 in - - ()
Snow  
Snow 0.00 in - - ()
Snow Depth 25.00 in    
Sea Level Pressure  
Sea Level Pressure 30.66 in    
Wind  
Wind Speed 6 mph (WSW)    
Max Wind Speed 9 mph    
Max Gust Speed -    
Visibility 10 miles    
Events      
Averages and records for this station are not official NWS values.
T = Trace of Precipitation, MM = Missing Value Source: NWS Daily Summary

Daily Weather History Graph

Daily Weather History Graph

Search for Another Location

Airport or City:

Trip Planner

Search our weather history database for the weather conditions in past years. The results will help you decide how hot, cold, wet, or windy it might be!

Date:

Astronomy

Feb. 28, 2015 Rise Set
Actual Time 6:21 AM EST 5:30 PM EST
Civil Twilight 5:52 AM EST 5:59 PM EST
Nautical Twilight 5:19 AM EST 6:32 PM EST
Astronomical Twilight 4:47 AM EST 7:05 PM EST
Moon 1:05 PM EST (2/28) 3:03 AM EST (2/28)
Length of Visible Light 12h 06m
Length of Day
11h 09m
Waxing Gibbous, 78% of the Moon is Illuminated
Feb 28
Waxing Gibbous
Mar 5
Full
Mar 13
Last Quarter
Mar 20
New
Mar 27
First Quarter

Hourly Weather History & Observations

Time (EST) Temp. Windchill Dew Point Humidity Pressure Visibility Wind Dir Wind Speed Gust Speed Precip Events Conditions
12:58 AM 9.3 °F -1.7 °F -8.7 °F 44% 30.54 in 10.0 mi WSW 6.9 mph - N/A   Clear
1:58 AM 9.7 °F -1.3 °F -7.2 °F 46% 30.56 in 10.0 mi West 6.9 mph - N/A   Clear
2:58 AM 9.5 °F -2.6 °F -5.8 °F 50% 30.57 in 10.0 mi WSW 8.1 mph - N/A   Clear
3:58 AM 7.9 °F -5.5 °F -5.4 °F 55% 30.60 in 10.0 mi West 9.2 mph - N/A   Clear
4:58 AM 4.6 °F -6.0 °F -6.5 °F 60% 30.63 in 10.0 mi West 5.8 mph - N/A   Clear
5:58 AM 6.1 °F -4.3 °F -6.5 °F 56% 30.65 in 10.0 mi West 5.8 mph - N/A   Clear
6:58 AM 3.6 °F -7.3 °F -6.9 °F 62% 30.69 in 10.0 mi WSW 5.8 mph - N/A   Clear
7:58 AM 8.8 °F -1.1 °F -6.5 °F 50% 30.71 in 10.0 mi West 5.8 mph - N/A   Clear
8:58 AM 13.5 °F 5.8 °F -4.9 °F 44% 30.72 in 10.0 mi West 4.6 mph - N/A   Clear
9:58 AM 17.1 °F 11.7 °F -2.4 °F 42% 30.73 in 10.0 mi SW 3.5 mph - N/A   Clear
10:58 AM 20.1 °F - -2.7 °F 37% 30.73 in 10.0 mi ENE 1.2 mph - N/A   Clear
11:58 AM 24.8 °F - 1.0 °F 36% 30.71 in 10.0 mi South 2.3 mph - N/A   Clear
12:58 PM 28.0 °F - 0.1 °F 30% 30.68 in 10.0 mi West 2.3 mph - N/A   Clear
1:58 PM 28.0 °F 21.7 °F -2.2 °F 27% 30.67 in 10.0 mi SW 5.8 mph - N/A   Clear
2:58 PM 29.3 °F 20.8 °F 0.1 °F 29% 30.65 in 10.0 mi WSW 9.2 mph - N/A   Clear
3:58 PM 29.5 °F 23.4 °F 0.3 °F 29% 30.66 in 10.0 mi SW 5.8 mph - N/A   Clear
4:58 PM 28.6 °F 22.4 °F -0.0 °F 29% 30.65 in 10.0 mi SW 5.8 mph - N/A   Clear
5:58 PM 26.8 °F 21.4 °F -2.7 °F 28% 30.66 in 10.0 mi SSW 4.6 mph - N/A   Clear
6:58 PM 20.5 °F - -0.4 °F 40% 30.67 in 10.0 mi SE 2.3 mph - N/A   Clear
7:58 PM 20.5 °F - -1.5 °F 38% 30.68 in 10.0 mi SW 2.3 mph - N/A   Clear
8:58 PM 16.2 °F - -0.2 °F 49% 30.69 in 10.0 mi Calm Calm - N/A   Clear
9:58 PM 13.3 °F 4.2 °F -1.7 °F 51% 30.68 in 10.0 mi West 5.8 mph - N/A   Clear
10:58 PM 13.1 °F - -0.2 °F 55% 30.68 in 10.0 mi SW 2.3 mph - N/A   Clear
11:58 PM 6.1 °F - -3.8 °F 64% 30.68 in 10.0 mi West 2.3 mph - N/A   Clear